Location: Bad Salzschlirf
(50.3750°N, 9.3000°E)
Time: 00:38:16
(UTC+02:00)

ISS - Visible Passes

Search period start: 24 July 2017 00:00
Search period end: 03 August 2017 00:00
Orbit: 400 x 408 km, 51.6° (Epoch: 24 July)

Date Brightness Start Highest point End Pass type
(mag) Time Alt. Az. Time Alt. Az. Time Alt. Az.
24 Jul -3.7 00:59:45 10° W 01:03:01 72° N 01:06:16 10° E visible
24 Jul -3.9 02:36:20 10° WNW 02:39:37 86° NNE 02:42:53 10° ESE visible
24 Jul -3.0 04:12:59 10° W 04:15:53 29° SSW 04:18:46 10° SSE visible
24 Jul -3.1 22:31:29 10° SSW 22:34:24 31° SSE 22:37:19 10° E visible
25 Jul -3.9 00:07:25 10° WSW 00:10:41 84° NNW 00:13:57 10° ENE visible
25 Jul -3.7 01:44:01 10° WNW 01:47:17 73° N 01:50:33 10° E visible
25 Jul -3.6 03:20:33 10° W 03:23:41 44° SSW 03:26:49 10° SE visible
25 Jul -1.7 04:59:20 10° SW 04:59:31 10° SW 04:59:43 10° SW visible
25 Jul -4.0 23:15:07 10° WSW 23:18:21 77° SSE 23:21:38 10° ENE visible
26 Jul -3.6 00:51:40 10° W 00:54:55 68° N 00:56:44 24° E visible
26 Jul -1.9 02:28:12 10° WNW 02:29:16 19° W 02:29:16 19° W visible
26 Jul -3.8 22:22:54 10° SW 22:26:05 54° SSE 22:29:16 10° ENE visible
26 Jul -3.6 23:59:18 10° W 00:02:33 69° N 00:05:20 13° E visible
27 Jul -2.8 01:35:52 10° WNW 01:37:56 36° WNW 01:37:56 36° WNW visible
27 Jul -3.8 23:06:54 10° W 23:10:10 79° N 23:13:27 10° ENE visible
28 Jul -3.8 00:43:30 10° WNW 00:46:46 76° N 00:46:57 73° NE visible
28 Jul -3.9 22:14:33 10° WSW 22:17:48 84° SSE 22:21:04 10° ENE visible
28 Jul -3.6 23:51:07 10° W 23:54:23 69° N 23:56:05 25° E visible
29 Jul -1.7 01:27:39 10° WNW 01:28:42 19° W 01:28:42 19° W visible
29 Jul -3.5 22:58:43 10° W 23:01:58 68° N 23:05:13 10° E visible
30 Jul -3.4 00:35:16 10° WNW 00:37:54 54° W 00:37:54 54° W visible
30 Jul -3.6 22:06:18 10° W 22:09:33 75° N 22:12:48 10° ENE visible
30 Jul -3.9 23:42:53 10° WNW 23:46:09 81° NNE 23:47:07 42° E visible
31 Jul -1.1 01:19:28 10° W 01:19:44 12° W 01:19:44 12° W visible
31 Jul -3.6 22:50:27 10° W 22:53:43 70° N 22:56:21 15° E visible
01 Aug -2.5 00:27:00 10° WNW 00:28:58 31° W 00:28:58 31° W visible
01 Aug -3.5 21:58:01 10° W 22:01:16 67° N 22:04:31 10° E visible
01 Aug -4.0 23:34:33 10° WNW 23:37:48 73° SSW 23:38:14 61° SE visible
02 Aug -3.9 22:42:08 10° WNW 22:45:24 86° NNE 22:47:30 20° ESE visible
